User: anonymous   Login
Location: Caribou
(46.8667°N, 68.0167°W)
Time: 08:28:16
(UTC-05:00)
Language:

SL-08 RB Rocket - Orbit

View from above orbital plane
View from above orbital plane
View from above satellite
View from above satellite

Ground track
Ground track

The orbit data is extracted from the following two-line orbital elements,

1 26387U 00033D   16037.19161471  .00000313  00000-0  62741-4 0  9990
2 26387  98.0343 106.3476 0027850 114.6576 302.9683 14.68085099834954
Epoch (UTC): 06 February 2016 04:35:55
Eccentricity: 0.0027850
inclination: 98.0343°
perigee height: 647 km
apogee height: 687 km
right ascension of ascending node: 106.3476°
argument of perigee: 114.6576°
revolutions per day: 14.68085099
mean anomaly at epoch: 302.9683°
orbit number at epoch: 83495

The dashed part of the orbit path shows where the satellite is in the earth's shadow,  

DLR